Weather Roundup
Issued by NWS Chicago, IL

Home | Current Version | Previous Version | Graphics & Text | Print | Product List | Glossary Off
Versions: 1 2 3 4 5 6 7 8 9 10 11 12 13 14 15 16 17 18 19 20 21 22 23 24 25 26 27 28 29 30 31 32 33 34 35 36 37 38 39 40 41 42 43 44 45 46 47 48 49 50

000
NZUS59 KLOT 211612
HRRLOT

CHICAGO AREA WEATHER ROUNDUP
NATIONAL WEATHER SERVICE CHICAGO/ROMEOVILLE IL
1000 AM CST TUE FEB 21 2017

NOTE: "FAIR" INDICATES FEW OR NO CLOUDS BELOW 12,000 FEET WITH NO
SIGNIFICANT WEATHER AND/OR OBSTRUCTIONS TO VISIBILITY.

* THESE STATIONS ARE NOT UNDER NWS QUALITY CONTROL. THEY ALSO MAY NOT
  REPORT WEATHER SUCH AS PRECIPITATION OR FOG.

ILZ005-006-012>014-019>023-211700-
NORTHEAST ILLINOIS

CITY           SKY/WX    TMP DP  RH WIND       PRES   REMARKS
OHARE          CLOUDY    58  54  86 S8        29.94S FOG
MIDWAY         CLOUDY    58  54  86 SW7       29.95R
AURORA         CLOUDY    59  56  89 SW3       29.95S FOG
LANSING*       CLOUDY    56  56 100 S7        29.97R FOG
JOLIET*        CLOUDY    59  57  95 CALM      29.97R
WAUKEGAN       CLOUDY    57  51  80 W6        29.93S
DUPAGE AIRPORT CLOUDY    57  54  89 W8        29.95R FOG
WHEELING       CLOUDY    57  54  89 W7        29.95S
KANKAKEE*      CLOUDY    55  54  97 CALM      29.97F
MORRIS*        CLOUDY    57  55  92 CALM      29.96R
LEWIS AIRPORT* PTSUNNY   57  57 100 SW8       29.97R
NORTHERLY ISL    N/A     57  53  86 W5          N/A
$$

WIZ051-052-058>065-066-070>072-211700-
SOUTHEAST WISCONSIN

CITY           SKY/WX    TMP DP  RH WIND       PRES   REMARKS
MILWAUKEE      PTSUNNY   54  46  74 W6        29.94S
KENOSHA*       PTSUNNY   55  50  83 NW8       29.94R
RACINE*        PTSUNNY   55  48  77 W7        29.94S
WAUKESHA       MOSUNNY   48  45  87 NW10      29.95S
WEST BEND      MOSUNNY   50  45  81 W5        29.93R
$$

INZ001>003-010>013-019-020-211700-
NORTHWEST INDIANA

CITY           SKY/WX    TMP DP  RH WIND       PRES   REMARKS
GARY*          CLOUDY    57  55  94 SW8       29.97R FOG
MICHIGAN CITY* NOT AVBL
RENSSELAER*    NOT AVBL
VALPARAISO     CLOUDY    55  53  93 S5        29.97R FOG
$$

LMZ740>746-211700-
SOUTHERN LAKE MICHIGAN

STATION/POSITION TIME  SKY/WX   TEMP WIND        PRES    VSBY
                                AIR  DIR/SP/G
                 (UTC)          (F)  (DEG/KT/KT) (MB)    (MI)
HARRISON CRIB    1540            56  230/  5/  6   N/A
BURNHAM HARBOR   1600            57  250/  5/  8   N/A
CALUMET HARBOR   1548            57  210/  5/  8 1013.8R
BURNS HARBOR     1540            53  200/  7/  8 1014.9R
MICHIGAN CITY    1540            54  120/  8/  9   N/A
$$

ABBREVIATIONS USED IN REMARKS
   TC - TEMPERATURE IN CELSIUS
  WCI - WIND CHILL INDEX
   HX - HEAT INDEX
  VSB - VISIBILITY
$$



USA.gov is the U.S. government's official web portal to all federal, state and local government web resources and services.